{"data":{"norad_id":28912,"intl_designator":"2005-049B","name":"METEOSAT-9 (MSG-2)","alt_names":[],"object_type":"PAYLOAD","status":"ACTIVE","operator":null,"country":"EUME","launch_date":"2005-12-21","launch_site_code":"FRGUI","launch_vehicle":null,"mission":null,"orbit_class":"UNKNOWN","rcs_meters":2.0767,"size_class":null,"mass_kg":null,"dimensions":null,"purposes":["comms","earth_obs"],"wikipedia_slug":null,"has_3d_model":false,"image_url":null,"decayed_at":null,"tle_current":{"epoch":"2026-09-19T13:46:02.839008Z","epoch_age_seconds":98380,"freshness":"FRESH","line1":"1 28912U 05049B   26262.57364397  .00000122  00000+0  00000+0 0  9995","line2":"2 28912   9.5708  53.2063 0001874 351.9658 205.6065  1.00277585  7948","mean_motion":1.00277585,"eccentricity":0.0001874,"inclination_deg":9.5708,"raan_deg":53.2063,"arg_perigee_deg":351.9658,"mean_anomaly_deg":205.6065,"bstar":0,"rev_number":794,"period_min":1436.0138409795,"perigee_km":35777.067722934,"apogee_km":35792.870455096,"semimajor_km":42163.106089015,"source":"CELESTRAK","updated_at":"2026-09-20T09:00:35.125806Z"}}}